• In Hungary
  • List of Countries
  • For 7 days
  • Water Temperature
  • Satellite Maps
  • Weather Map
  • News
  • Weather Widgets
  • user-avatar
    Login

    Hourly Weather Smolovye Lozki

    Today, 21 January, Sunday

    Time Temperature Precipitation Wind Pressure Humidity
    00:00 -6°C° 0 mm 2 mps 744 mmHg 92%
    01:00 -6°C° 0 mm 2 mps 744 mmHg 92%
    02:00 -4°C° 0 mm 1 mps 744 mmHg 92%
    03:00 -7°C° 0 mm 2 mps 744 mmHg 93%
    04:00 -7°C° 0 mm 2 mps 744 mmHg 93%
    05:00 -7°C° 0 mm 2 mps 744 mmHg 93%
    06:00 -7°C° 0 mm 1 mps 744 mmHg 94%
    07:00 -7°C° 0 mm 1 mps 744 mmHg 94%
    08:00 -7°C° 0 mm 1 mps 744 mmHg 95%
    09:00 -6°C° 0 mm 1 mps 744 mmHg 93%
    10:00 -4°C° 0 mm 1 mps 745 mmHg 91%
    11:00 -3°C° 0 mm 1 mps 745 mmHg 90%
    12:00 -5°C° 0 mm 2 mps 745 mmHg 88%
    13:00 -4°C° 0 mm 2 mps 745 mmHg 87%
    14:00 -4°C° 0 mm 2 mps 745 mmHg 86%
    15:00 -4°C° 0 mm 2 mps 746 mmHg 87%
    16:00 -5°C° 0 mm 2 mps 746 mmHg 89%
    17:00 -6°C° 0 mm 2 mps 747 mmHg 91%
    18:00 -6°C° 0 mm 2 mps 747 mmHg 91%
    19:00 -6°C° 0 mm 1 mps 747 mmHg 92%
    20:00 -7°C° 0 mm 1 mps 748 mmHg 92%
    21:00 -7°C° 0 mm 1 mps 748 mmHg 92%
    22:00 -7°C° 0 mm 1 mps 749 mmHg 92%
    23:00 -8°C° 0 mm 1 mps 749 mmHg 93%

    Tomorrow, 22 January, Monday

    Time Temperature Precipitation Wind Pressure Humidity
    00:00 -8°C° 0 mm 1 mps 749 mmHg 93%
    01:00 -8°C° 0 mm 1 mps 750 mmHg 93%
    02:00 -8°C° 0 mm 1 mps 750 mmHg 93%
    03:00 -9°C° 0 mm 1 mps 750 mmHg 94%
    04:00 -9°C° 0 mm 1 mps 750 mmHg 94%
    05:00 -9°C° 0 mm 1 mps 751 mmHg 94%
    06:00 -9°C° 0 mm 1 mps 751 mmHg 94%
    07:00 -10°C° 0 mm 1 mps 751 mmHg 94%
    08:00 -10°C° 0 mm 1 mps 751 mmHg 94%
    09:00 -9°C° 0 mm 1 mps 751 mmHg 92%
    10:00 -8°C° 0 mm 1 mps 752 mmHg 90%
    11:00 -7°C° 0 mm 1 mps 752 mmHg 87%
    12:00 -6°C° 0 mm 1 mps 752 mmHg 86%
    13:00 -6°C° 0 mm 1 mps 752 mmHg 85%
    14:00 -4°C° 0 mm 1 mps 752 mmHg 83%
    15:00 -6°C° 0 mm 1 mps 753 mmHg 86%
    16:00 -7°C° 0 mm 1 mps 753 mmHg 89%
    17:00 -8°C° 0 mm 1 mps 753 mmHg 91%
    18:00 -9°C° 0 mm 1 mps 753 mmHg 92%
    19:00 -9°C° 0 mm 1 mps 754 mmHg 92%
    20:00 -9°C° 0 mm 1 mps 754 mmHg 93%
    21:00 -9°C° 0 mm 1 mps 754 mmHg 93%
    22:00 -10°C° 0 mm 2 mps 754 mmHg 94%
    23:00 -12°C° 0 mm 2 mps 754 mmHg 95%

    Day after tomorrow, 23 January, Tuesday

    Time Temperature Precipitation Wind Pressure Humidity
    00:00 -12°C° 0 mm 2 mps 755 mmHg 95%
    01:00 -12°C° 0 mm 2 mps 755 mmHg 95%
    02:00 -12°C° 0 mm 2 mps 756 mmHg 95%
    03:00 -10°C° 0 mm 1 mps 756 mmHg 95%
    04:00 -11°C° 0 mm 1 mps 756 mmHg 95%
    05:00 -11°C° 0 mm 1 mps 756 mmHg 95%
    06:00 -11°C° 0 mm 1 mps 756 mmHg 95%
    07:00 -11°C° 0 mm 1 mps 757 mmHg 95%
    08:00 -12°C° 0 mm 1 mps 757 mmHg 95%
    09:00 -10°C° 0 mm 1 mps 757 mmHg 92%
    10:00 -9°C° 0 mm 1 mps 758 mmHg 89%
    11:00 -8°C° 0 mm 1 mps 758 mmHg 86%
    12:00 -9°C° 0 mm 2 mps 758 mmHg 85%
    13:00 -8°C° 0 mm 2 mps 758 mmHg 85%
    14:00 -7°C° 0 mm 2 mps 758 mmHg 84%
    15:00 -8°C° 0 mm 2 mps 759 mmHg 86%
    16:00 -9°C° 0 mm 2 mps 759 mmHg 88%
    17:00 -10°C° 0 mm 2 mps 760 mmHg 91%
    18:00 -10°C° 0 mm 2 mps 760 mmHg 91%
    19:00 -12°C° 0 mm 2 mps 760 mmHg 91%
    20:00 -12°C° 0 mm 2 mps 760 mmHg 91%
    21:00 -12°C° 0 mm 2 mps 761 mmHg 90%
    22:00 -12°C° 0 mm 2 mps 761 mmHg 90%
    23:00 -12°C° 0 mm 2 mps 761 mmHg 89%

    24 January, Wednesday

    Time Temperature Precipitation Wind Pressure Humidity
    00:00 -12°C° 0 mm 2 mps 761 mmHg 89%
    01:00 -11°C° 0 mm 1 mps 762 mmHg 88%
    02:00 -11°C° 0 mm 1 mps 762 mmHg 88%
    03:00 -11°C° 0 mm 1 mps 762 mmHg 87%
    04:00 -11°C° 0 mm 1 mps 762 mmHg 87%
    05:00 -11°C° 0 mm 1 mps 762 mmHg 87%
    06:00 -11°C° 0 mm 1 mps 762 mmHg 87%
    07:00 -11°C° 0 mm 1 mps 762 mmHg 86%
    08:00 -11°C° 0 mm 1 mps 762 mmHg 86%
    09:00 -10°C° 0 mm 1 mps 763 mmHg 83%
    10:00 -9°C° 0 mm 1 mps 763 mmHg 81%
    11:00 -8°C° 0 mm 2 mps 763 mmHg 78%
    12:00 -8°C° 0 mm 2 mps 762 mmHg 78%
    13:00 -7°C° 0 mm 2 mps 762 mmHg 77%
    14:00 -7°C° 0 mm 3 mps 762 mmHg 77%
    15:00 -8°C° 0 mm 3 mps 762 mmHg 79%
    16:00 -9°C° 0 mm 3 mps 761 mmHg 80%
    17:00 -10°C° 0 mm 3 mps 761 mmHg 82%
    18:00 -10°C° 0 mm 3 mps 761 mmHg 81%
    19:00 -11°C° 0 mm 4 mps 761 mmHg 79%
    20:00 -11°C° 0 mm 4 mps 761 mmHg 77%
    21:00 -11°C° 0 mm 4 mps 761 mmHg 76%
    22:00 -10°C° 0 mm 4 mps 761 mmHg 75%
    23:00 -11°C° 0 mm 5 mps 761 mmHg 74%

    25 January, Thursday

    Time Temperature Precipitation Wind Pressure Humidity
    00:00 -11°C° 0 mm 5 mps 760 mmHg 74%
    01:00 -11°C° 0 mm 5 mps 760 mmHg 74%
    02:00 -11°C° 0 mm 5 mps 760 mmHg 73%
    03:00 -11°C° 0 mm 5 mps 760 mmHg 74%
    04:00 -12°C° 0 mm 5 mps 759 mmHg 74%
    05:00 -11°C° 0 mm 4 mps 759 mmHg 74%
    06:00 -12°C° 0 mm 5 mps 759 mmHg 74%
    07:00 -12°C° 0 mm 5 mps 759 mmHg 73%
    08:00 -12°C° 0 mm 5 mps 759 mmHg 73%
    09:00 -11°C° 0 mm 5 mps 759 mmHg 71%
    10:00 -10°C° 0 mm 5 mps 759 mmHg 68%
    11:00 -9°C° 0 mm 6 mps 759 mmHg 66%
    12:00 -8°C° 0 mm 6 mps 759 mmHg 65%
    13:00 -8°C° 0 mm 6 mps 759 mmHg 64%
    14:00 -6°C° 0 mm 6 mps 758 mmHg 63%
    15:00 -7°C° 0 mm 5 mps 758 mmHg 65%
    16:00 -7°C° 0 mm 5 mps 758 mmHg 68%
    17:00 -8°C° 0 mm 5 mps 758 mmHg 70%
    18:00 -8°C° 0 mm 5 mps 758 mmHg 72%
    19:00 -10°C° 0 mm 5 mps 758 mmHg 73%
    20:00 -10°C° 0 mm 5 mps 758 mmHg 75%
    21:00 -10°C° 0 mm 5 mps 758 mmHg 75%
    22:00 -11°C° 0 mm 5 mps 758 mmHg 74%
    23:00 -11°C° 0 mm 5 mps 758 mmHg 74%

    26 January, Friday

    Time Temperature Precipitation Wind Pressure Humidity
    00:00 -11°C° 0 mm 5 mps 758 mmHg 75%
    01:00 -11°C° 0 mm 5 mps 758 mmHg 76%
    02:00 -11°C° 0 mm 4 mps 758 mmHg 77%
    03:00 -12°C° 0 mm 5 mps 758 mmHg 79%
    04:00 -12°C° 0 mm 5 mps 758 mmHg 81%
    05:00 -12°C° 0 mm 5 mps 758 mmHg 83%
    06:00 -12°C° 0 mm 5 mps 758 mmHg 86%
    07:00 -12°C° 0 mm 5 mps 758 mmHg 88%
    08:00 -12°C° 0 mm 5 mps 758 mmHg 90%
    09:00 -12°C° 0 mm 5 mps 758 mmHg 90%
    10:00 -11°C° 0 mm 5 mps 758 mmHg 89%
    11:00 -10°C° 0 mm 5 mps 758 mmHg 89%
    12:00 -10°C° 0 mm 5 mps 758 mmHg 87%
    13:00 -8°C° 0 mm 5 mps 758 mmHg 86%
    14:00 -8°C° 0 mm 5 mps 757 mmHg 85%
    15:00 -8°C° 0 mm 5 mps 757 mmHg 86%
    16:00 -10°C° 0 mm 5 mps 757 mmHg 87%
    17:00 -9°C° 0 mm 4 mps 757 mmHg 89%
    18:00 -9°C° 0 mm 4 mps 758 mmHg 90%
    19:00 -9°C° 0 mm 4 mps 758 mmHg 91%
    20:00 -9°C° 0 mm 4 mps 758 mmHg 92%
    21:00 -9°C° 0 mm 4 mps 758 mmHg 92%
    22:00 -9°C° 0 mm 4 mps 758 mmHg 92%
    23:00 -9°C° 0 mm 4 mps 758 mmHg 92%
    Show more